Year,Month,Day,Hour,Minute,Value (Times are PST for temperature in C)
2014,08,03,00,00,18.60
2014,08,03,00,01,18.50
2014,08,03,00,02,18.50
2014,08,03,00,03,18.50
2014,08,03,00,04,18.50
2014,08,03,00,05,18.50
2014,08,03,00,06,18.40
2014,08,03,00,07,18.40
2014,08,03,00,08,18.40
2014,08,03,00,09,18.40
2014,08,03,00,10,18.40
2014,08,03,00,11,18.40
2014,08,03,00,12,18.30
2014,08,03,00,13,18.30
2014,08,03,00,14,18.30
2014,08,03,00,15,18.30
2014,08,03,00,16,18.30
2014,08,03,00,17,18.30
2014,08,03,00,18,18.20
2014,08,03,00,19,18.20
2014,08,03,00,20,18.20
2014,08,03,00,21,18.20
2014,08,03,00,22,18.20
2014,08,03,00,23,18.20
2014,08,03,00,24,18.20
2014,08,03,00,25,18.20
2014,08,03,00,26,18.10
2014,08,03,00,27,18.10
2014,08,03,00,28,18.10
2014,08,03,00,29,18.10
2014,08,03,00,30,18.10
2014,08,03,00,31,18.10
2014,08,03,00,32,18.10
2014,08,03,00,33,18.10
2014,08,03,00,34,18.10
2014,08,03,00,35,18.00
2014,08,03,00,36,18.00
2014,08,03,00,37,18.00
2014,08,03,00,38,18.00
2014,08,03,00,39,17.90
2014,08,03,00,40,17.90
2014,08,03,00,41,17.90
2014,08,03,00,42,17.90
2014,08,03,00,43,17.90
2014,08,03,00,44,17.90
2014,08,03,00,45,17.80
2014,08,03,00,46,17.80
2014,08,03,00,47,17.80
2014,08,03,00,48,17.80
2014,08,03,00,49,17.80
2014,08,03,00,50,17.80
2014,08,03,00,51,17.80
2014,08,03,00,52,17.80
2014,08,03,00,53,17.80
2014,08,03,00,54,17.80
2014,08,03,00,55,17.70
2014,08,03,00,56,17.70
2014,08,03,00,57,17.70
2014,08,03,00,58,17.70
2014,08,03,00,59,17.70
2014,08,03,01,00,17.70
2014,08,03,01,01,17.70
2014,08,03,01,02,17.70
2014,08,03,01,03,17.70
2014,08,03,01,04,17.70
2014,08,03,01,05,17.70
2014,08,03,01,06,17.70
2014,08,03,01,07,17.70
2014,08,03,01,08,17.70
2014,08,03,01,09,17.70
2014,08,03,01,10,17.60
2014,08,03,01,11,17.60
2014,08,03,01,12,17.60
2014,08,03,01,13,17.60
2014,08,03,01,14,17.60
2014,08,03,01,15,17.60
2014,08,03,01,16,17.60
2014,08,03,01,17,17.50
2014,08,03,01,18,17.50
2014,08,03,01,19,17.50
2014,08,03,01,20,17.50
2014,08,03,01,21,17.50
2014,08,03,01,22,17.50
2014,08,03,01,23,17.50
2014,08,03,01,24,17.40
2014,08,03,01,25,17.40
2014,08,03,01,26,17.40
2014,08,03,01,27,17.40
2014,08,03,01,28,17.40
2014,08,03,01,29,17.40
2014,08,03,01,30,17.40
2014,08,03,01,31,17.40
2014,08,03,01,32,17.40
2014,08,03,01,33,17.40
2014,08,03,01,34,17.40
2014,08,03,01,35,17.40
2014,08,03,01,36,17.40
2014,08,03,01,37,17.30
2014,08,03,01,38,17.30
2014,08,03,01,39,17.30
2014,08,03,01,40,17.30
2014,08,03,01,41,17.30
2014,08,03,01,42,17.30
2014,08,03,01,43,17.30
2014,08,03,01,44,17.30
2014,08,03,01,45,17.30
2014,08,03,01,46,17.30
2014,08,03,01,47,17.30
2014,08,03,01,48,17.30
2014,08,03,01,49,17.30
2014,08,03,01,50,17.20
2014,08,03,01,51,17.20
2014,08,03,01,52,17.20
2014,08,03,01,53,17.20
2014,08,03,01,54,17.20
2014,08,03,01,55,17.20
2014,08,03,01,56,17.10
2014,08,03,01,57,17.10
2014,08,03,01,58,17.10
2014,08,03,01,59,17.10
2014,08,03,02,00,17.10
2014,08,03,02,01,17.10
2014,08,03,02,02,17.10
2014,08,03,02,03,17.10
2014,08,03,02,04,17.10
2014,08,03,02,05,17.10
2014,08,03,02,06,17.10
2014,08,03,02,07,17.10
2014,08,03,02,08,17.10
2014,08,03,02,09,17.10
2014,08,03,02,10,17.10
2014,08,03,02,11,17.10
2014,08,03,02,12,17.10
2014,08,03,02,13,17.10
2014,08,03,02,14,17.00
2014,08,03,02,15,17.00
2014,08,03,02,16,17.00
2014,08,03,02,17,17.00
2014,08,03,02,18,17.00
2014,08,03,02,19,17.00
2014,08,03,02,20,17.00
2014,08,03,02,21,17.00
2014,08,03,02,22,17.00
2014,08,03,02,23,16.90
2014,08,03,02,24,16.90
2014,08,03,02,25,16.90
2014,08,03,02,26,16.90
2014,08,03,02,27,16.90
2014,08,03,02,28,16.90
2014,08,03,02,29,16.90
2014,08,03,02,30,16.90
2014,08,03,02,31,16.90
2014,08,03,02,32,16.90
2014,08,03,02,33,16.90
2014,08,03,02,34,16.90
2014,08,03,02,35,16.90
2014,08,03,02,36,16.80
2014,08,03,02,37,16.80
2014,08,03,02,38,16.80
2014,08,03,02,39,16.80
2014,08,03,02,40,16.80
2014,08,03,02,41,16.80
2014,08,03,02,42,16.80
2014,08,03,02,43,16.80
2014,08,03,02,44,16.80
2014,08,03,02,45,16.80
2014,08,03,02,46,16.80
2014,08,03,02,47,16.80
2014,08,03,02,48,16.80
2014,08,03,02,49,16.80
2014,08,03,02,50,16.80
2014,08,03,02,51,16.80
2014,08,03,02,52,16.80
2014,08,03,02,53,16.70
2014,08,03,02,54,16.70
2014,08,03,02,55,16.70
2014,08,03,02,56,16.70
2014,08,03,02,57,16.70
2014,08,03,02,58,16.70
2014,08,03,02,59,16.70
2014,08,03,03,00,16.70
2014,08,03,03,01,16.70
2014,08,03,03,02,16.60
2014,08,03,03,03,16.60
2014,08,03,03,04,16.60
2014,08,03,03,05,16.60
2014,08,03,03,06,16.60
2014,08,03,03,07,16.60
2014,08,03,03,08,16.60
2014,08,03,03,09,16.60
2014,08,03,03,10,16.60
2014,08,03,03,11,16.50
2014,08,03,03,12,16.50
2014,08,03,03,13,16.50
2014,08,03,03,14,16.50
2014,08,03,03,15,16.40
2014,08,03,03,16,16.40
2014,08,03,03,17,16.40
2014,08,03,03,18,16.40
2014,08,03,03,19,16.40
2014,08,03,03,20,16.30
2014,08,03,03,21,16.30
2014,08,03,03,22,16.30
2014,08,03,03,23,16.30
2014,08,03,03,24,16.30
2014,08,03,03,25,16.30
2014,08,03,03,26,16.30
2014,08,03,03,27,16.20
2014,08,03,03,28,16.20
2014,08,03,03,29,16.20
2014,08,03,03,30,16.20
2014,08,03,03,31,16.20
2014,08,03,03,32,16.20
2014,08,03,03,33,16.20
2014,08,03,03,34,16.20
2014,08,03,03,35,16.10
2014,08,03,03,36,16.10
2014,08,03,03,37,16.10
2014,08,03,03,38,16.10
2014,08,03,03,39,16.10
2014,08,03,03,40,16.10
2014,08,03,03,41,16.10
2014,08,03,03,42,16.10
2014,08,03,03,43,16.10
2014,08,03,03,44,16.00
2014,08,03,03,45,16.00
2014,08,03,03,46,16.00
2014,08,03,03,47,16.00
2014,08,03,03,48,16.00
2014,08,03,03,49,16.00
2014,08,03,03,50,15.90
2014,08,03,03,51,15.90
2014,08,03,03,52,15.90
2014,08,03,03,53,15.90
2014,08,03,03,54,15.90
2014,08,03,03,55,15.90
2014,08,03,03,56,15.80
2014,08,03,03,57,15.80
2014,08,03,03,58,15.80
2014,08,03,03,59,15.80
2014,08,03,04,00,15.80
2014,08,03,04,01,15.80
2014,08,03,04,02,15.80
2014,08,03,04,03,15.80
2014,08,03,04,04,15.80
2014,08,03,04,05,15.70
2014,08,03,04,06,15.70
2014,08,03,04,07,15.70
2014,08,03,04,08,15.70
2014,08,03,04,09,15.70
2014,08,03,04,10,15.70
2014,08,03,04,11,15.70
2014,08,03,04,12,15.60
2014,08,03,04,13,15.60
2014,08,03,04,14,15.60
2014,08,03,04,15,15.60
2014,08,03,04,16,15.50
2014,08,03,04,17,15.50
2014,08,03,04,18,15.50
2014,08,03,04,19,15.50
2014,08,03,04,20,15.40
2014,08,03,04,21,15.40
2014,08,03,04,22,15.40
2014,08,03,04,23,15.40
2014,08,03,04,24,15.40
2014,08,03,04,25,15.40
2014,08,03,04,26,15.40
2014,08,03,04,27,15.40
2014,08,03,04,28,15.40
2014,08,03,04,29,15.30
2014,08,03,04,30,15.30
2014,08,03,04,31,15.30
2014,08,03,04,32,15.30
2014,08,03,04,33,15.30
2014,08,03,04,34,15.30
2014,08,03,04,35,15.30
2014,08,03,04,36,15.20
2014,08,03,04,37,15.20
2014,08,03,04,38,15.20
2014,08,03,04,39,15.20
2014,08,03,04,40,15.20
2014,08,03,04,41,15.20
2014,08,03,04,42,15.20
2014,08,03,04,43,15.10
2014,08,03,04,44,15.10
2014,08,03,04,45,15.10
2014,08,03,04,46,15.10
2014,08,03,04,47,15.10
2014,08,03,04,48,15.10
2014,08,03,04,49,15.10
2014,08,03,04,50,15.00
2014,08,03,04,51,15.00
2014,08,03,04,52,15.00
2014,08,03,04,53,14.90
2014,08,03,04,54,14.90
2014,08,03,04,55,14.90
2014,08,03,04,56,14.90
2014,08,03,04,57,14.90
2014,08,03,04,58,14.90
2014,08,03,04,59,14.90
2014,08,03,05,00,14.90
2014,08,03,05,01,14.90
2014,08,03,05,02,14.90
2014,08,03,05,03,14.80
2014,08,03,05,04,14.80
2014,08,03,05,05,14.80
2014,08,03,05,06,14.80
2014,08,03,05,07,14.80
2014,08,03,05,08,14.80
2014,08,03,05,09,14.80
2014,08,03,05,10,14.70
2014,08,03,05,11,14.70
2014,08,03,05,12,14.70
2014,08,03,05,13,14.70
2014,08,03,05,14,14.70
2014,08,03,05,15,14.70
2014,08,03,05,16,14.70
2014,08,03,05,17,14.70
2014,08,03,05,18,14.70
2014,08,03,05,19,14.70
2014,08,03,05,20,14.70
2014,08,03,05,21,14.70
2014,08,03,05,22,14.70
2014,08,03,05,23,14.70
2014,08,03,05,24,14.70
2014,08,03,05,25,14.70
2014,08,03,05,26,14.70
2014,08,03,05,27,14.70
2014,08,03,05,28,14.70
2014,08,03,05,29,14.60
2014,08,03,05,30,14.60
2014,08,03,05,31,14.60
2014,08,03,05,32,14.60
2014,08,03,05,33,14.60
2014,08,03,05,34,14.50
2014,08,03,05,35,14.50
2014,08,03,05,36,14.50
2014,08,03,05,37,14.40
2014,08,03,05,38,14.40
2014,08,03,05,39,14.40
2014,08,03,05,40,14.30
2014,08,03,05,41,14.30
2014,08,03,05,42,14.30
2014,08,03,05,43,14.30
2014,08,03,05,44,14.20
2014,08,03,05,45,14.20
2014,08,03,05,46,14.20
2014,08,03,05,47,14.20
2014,08,03,05,48,14.20
2014,08,03,05,49,14.20
2014,08,03,05,50,14.20
2014,08,03,05,51,14.20
2014,08,03,05,52,14.10
2014,08,03,05,53,14.10
2014,08,03,05,54,14.10
2014,08,03,05,55,14.10
2014,08,03,05,56,14.10
2014,08,03,05,57,14.10
2014,08,03,05,58,14.10
2014,08,03,05,59,14.10
2014,08,03,06,00,14.10
2014,08,03,06,01,14.10
2014,08,03,06,02,14.10
2014,08,03,06,03,14.20
2014,08,03,06,04,14.20
2014,08,03,06,05,14.20
2014,08,03,06,06,14.20
2014,08,03,06,07,14.20
2014,08,03,06,08,14.20
2014,08,03,06,09,14.20
2014,08,03,06,10,14.20
2014,08,03,06,11,14.20
2014,08,03,06,12,14.20
2014,08,03,06,13,14.20
2014,08,03,06,14,14.20
2014,08,03,06,15,14.20
2014,08,03,06,16,14.20
2014,08,03,06,17,14.30
2014,08,03,06,18,14.30
2014,08,03,06,19,14.20
2014,08,03,06,20,14.20
2014,08,03,06,21,14.20
2014,08,03,06,22,14.20
2014,08,03,06,23,14.20
2014,08,03,06,24,14.20
2014,08,03,06,25,14.20
2014,08,03,06,26,14.20
2014,08,03,06,27,14.20
2014,08,03,06,28,14.10
2014,08,03,06,29,14.10
2014,08,03,06,30,14.10
2014,08,03,06,31,14.10
2014,08,03,06,32,14.10
2014,08,03,06,33,14.10
2014,08,03,06,34,14.10
2014,08,03,06,35,14.10
2014,08,03,06,36,14.10
2014,08,03,06,37,14.10
2014,08,03,06,38,14.10
2014,08,03,06,39,14.10
2014,08,03,06,40,14.10
2014,08,03,06,41,14.10
2014,08,03,06,42,14.20
2014,08,03,06,43,14.20
2014,08,03,06,44,14.20
2014,08,03,06,45,14.20
2014,08,03,06,46,14.20
2014,08,03,06,47,14.30
2014,08,03,06,48,14.30
2014,08,03,06,49,14.30
2014,08,03,06,50,14.40
2014,08,03,06,51,14.40
2014,08,03,06,52,14.40
2014,08,03,06,53,14.50
2014,08,03,06,54,14.50
2014,08,03,06,55,14.60
2014,08,03,06,56,14.60
2014,08,03,06,57,14.70
2014,08,03,06,58,14.70
2014,08,03,06,59,14.80
2014,08,03,07,00,14.80
2014,08,03,07,01,14.80
2014,08,03,07,02,14.90
2014,08,03,07,03,14.90
2014,08,03,07,04,15.00
2014,08,03,07,05,15.00
2014,08,03,07,06,15.00
2014,08,03,07,07,15.10
2014,08,03,07,08,15.10
2014,08,03,07,09,15.20
2014,08,03,07,10,15.20
2014,08,03,07,11,15.30
2014,08,03,07,12,15.30
2014,08,03,07,13,15.40
2014,08,03,07,14,15.50
2014,08,03,07,15,15.50
2014,08,03,07,16,15.60
2014,08,03,07,17,15.70
2014,08,03,07,18,15.70
2014,08,03,07,19,15.80
2014,08,03,07,20,15.90
2014,08,03,07,21,16.10
2014,08,03,07,22,16.20
2014,08,03,07,23,16.30
2014,08,03,07,24,16.50
2014,08,03,07,25,16.60
2014,08,03,07,26,16.80
2014,08,03,07,27,17.00
2014,08,03,07,28,17.10
2014,08,03,07,29,17.30
2014,08,03,07,30,17.40
2014,08,03,07,31,17.60
2014,08,03,07,32,17.70
2014,08,03,07,33,17.90
2014,08,03,07,34,18.00
2014,08,03,07,35,18.10
2014,08,03,07,36,18.10
2014,08,03,07,37,18.20
2014,08,03,07,38,18.20
2014,08,03,07,39,18.30
2014,08,03,07,40,18.40
2014,08,03,07,41,18.50
2014,08,03,07,42,18.60
2014,08,03,07,43,18.70
2014,08,03,07,44,18.80
2014,08,03,07,45,18.90
2014,08,03,07,46,19.00
2014,08,03,07,47,19.00
2014,08,03,07,48,19.00
2014,08,03,07,49,19.00
2014,08,03,07,50,19.00
2014,08,03,07,51,19.00
2014,08,03,07,52,19.00
2014,08,03,07,53,19.10
2014,08,03,07,54,19.20
2014,08,03,07,55,19.20
2014,08,03,07,56,19.30
2014,08,03,07,57,19.40
2014,08,03,07,58,19.50
2014,08,03,07,59,19.60
2014,08,03,08,00,19.70
2014,08,03,08,01,19.80
2014,08,03,08,02,19.90
2014,08,03,08,03,20.10
2014,08,03,08,04,20.20
2014,08,03,08,05,20.30
2014,08,03,08,06,20.40
2014,08,03,08,07,20.40
2014,08,03,08,08,20.50
2014,08,03,08,09,20.60
2014,08,03,08,10,20.70
2014,08,03,08,11,20.70
2014,08,03,08,12,20.80
2014,08,03,08,13,20.80
2014,08,03,08,14,20.90
2014,08,03,08,15,21.00
2014,08,03,08,16,21.10
2014,08,03,08,17,21.20
2014,08,03,08,18,21.30
2014,08,03,08,19,21.40
2014,08,03,08,20,21.40
2014,08,03,08,21,21.50
2014,08,03,08,22,21.50
2014,08,03,08,23,21.60
2014,08,03,08,24,21.60
2014,08,03,08,25,21.60
2014,08,03,08,26,21.60
2014,08,03,08,27,21.60
2014,08,03,08,28,21.60
2014,08,03,08,29,21.60
2014,08,03,08,30,21.50
2014,08,03,08,31,21.50
2014,08,03,08,32,21.50
2014,08,03,08,33,21.40
2014,08,03,08,34,21.40
2014,08,03,08,35,21.50
2014,08,03,08,36,21.50
2014,08,03,08,37,21.50
2014,08,03,08,38,21.50
2014,08,03,08,39,21.60
2014,08,03,08,40,21.60
2014,08,03,08,41,21.70
2014,08,03,08,42,21.70
2014,08,03,08,43,21.70
2014,08,03,08,44,21.70
2014,08,03,08,45,21.80
2014,08,03,08,46,21.80
2014,08,03,08,47,21.80
2014,08,03,08,48,21.80
2014,08,03,08,49,21.90
2014,08,03,08,50,21.90
2014,08,03,08,51,21.90
2014,08,03,08,52,22.00
2014,08,03,08,53,22.00
2014,08,03,08,54,22.00
2014,08,03,08,55,22.10
2014,08,03,08,56,22.10
2014,08,03,08,57,22.10
2014,08,03,08,58,22.20
2014,08,03,08,59,22.30
2014,08,03,09,00,22.30
2014,08,03,09,01,22.30
2014,08,03,09,02,22.20
2014,08,03,09,03,22.20
2014,08,03,09,04,22.20
2014,08,03,09,05,22.30
2014,08,03,09,06,22.30
2014,08,03,09,07,22.30
2014,08,03,09,08,22.30
2014,08,03,09,09,22.30
2014,08,03,09,10,22.30
2014,08,03,09,11,22.30
2014,08,03,09,12,22.30
2014,08,03,09,13,22.30
2014,08,03,09,14,22.30
2014,08,03,09,15,22.30
2014,08,03,09,16,22.30
2014,08,03,09,17,22.30
2014,08,03,09,18,22.30
2014,08,03,09,19,22.30
2014,08,03,09,20,22.20
2014,08,03,09,21,22.20
2014,08,03,09,22,22.20
2014,08,03,09,23,22.20
2014,08,03,09,24,22.20
2014,08,03,09,25,22.10
2014,08,03,09,26,22.10
2014,08,03,09,27,22.10
2014,08,03,09,28,22.20
2014,08,03,09,29,22.20
2014,08,03,09,30,22.20
2014,08,03,09,31,22.20
2014,08,03,09,32,22.20
2014,08,03,09,33,22.30
2014,08,03,09,34,22.30
2014,08,03,09,35,22.40
2014,08,03,09,36,22.40
2014,08,03,09,37,22.40
2014,08,03,09,38,22.40
2014,08,03,09,39,22.40
2014,08,03,09,40,22.30
2014,08,03,09,41,22.30
2014,08,03,09,42,22.30
2014,08,03,09,43,22.30
2014,08,03,09,44,22.40
2014,08,03,09,45,22.40
2014,08,03,09,46,22.40
2014,08,03,09,47,22.40
2014,08,03,09,48,22.40
2014,08,03,09,49,22.40
2014,08,03,09,50,22.50
2014,08,03,09,51,22.60
2014,08,03,09,52,22.70
2014,08,03,09,53,22.80
2014,08,03,09,54,22.80
2014,08,03,09,55,22.90
2014,08,03,09,56,22.90
2014,08,03,09,57,22.90
2014,08,03,09,58,22.90
2014,08,03,09,59,22.90
2014,08,03,10,00,22.90
2014,08,03,10,01,22.90
2014,08,03,10,02,22.90
2014,08,03,10,03,23.00
2014,08,03,10,04,23.00
2014,08,03,10,05,23.10
2014,08,03,10,06,23.10
2014,08,03,10,07,23.10
2014,08,03,10,08,23.10
2014,08,03,10,09,23.10
2014,08,03,10,10,23.10
2014,08,03,10,11,23.10
2014,08,03,10,12,23.10
2014,08,03,10,13,23.20
2014,08,03,10,14,23.10
2014,08,03,10,15,23.10
2014,08,03,10,16,23.00
2014,08,03,10,17,23.00
2014,08,03,10,18,22.90
2014,08,03,10,19,22.90
2014,08,03,10,20,22.90
2014,08,03,10,21,22.90
2014,08,03,10,22,22.90
2014,08,03,10,23,22.90
2014,08,03,10,24,22.90
2014,08,03,10,25,22.90
2014,08,03,10,26,22.90
2014,08,03,10,27,22.80
2014,08,03,10,28,22.80
2014,08,03,10,29,22.60
2014,08,03,10,30,22.60
2014,08,03,10,31,22.70
2014,08,03,10,32,22.80
2014,08,03,10,33,22.90
2014,08,03,10,34,22.90
2014,08,03,10,35,22.80
2014,08,03,10,36,22.70
2014,08,03,10,37,22.60
2014,08,03,10,38,22.60
2014,08,03,10,39,22.60
2014,08,03,10,40,22.60
2014,08,03,10,41,22.70
2014,08,03,10,42,22.70
2014,08,03,10,43,22.80
2014,08,03,10,44,22.80
2014,08,03,10,45,22.80
2014,08,03,10,46,22.80
2014,08,03,10,47,22.80
2014,08,03,10,48,22.80
2014,08,03,10,49,22.90
2014,08,03,10,50,22.90
2014,08,03,10,51,23.00
2014,08,03,10,52,23.00
2014,08,03,10,53,23.00
2014,08,03,10,54,22.80
2014,08,03,10,55,22.80
2014,08,03,10,56,22.80
2014,08,03,10,57,22.80
2014,08,03,10,58,22.80
2014,08,03,10,59,22.80
2014,08,03,11,00,22.80
2014,08,03,11,01,22.80
2014,08,03,11,02,22.80
2014,08,03,11,03,22.90
2014,08,03,11,04,23.00
2014,08,03,11,05,23.20
2014,08,03,11,06,23.30
2014,08,03,11,07,23.40
2014,08,03,11,08,23.40
2014,08,03,11,09,23.40
2014,08,03,11,10,23.40
2014,08,03,11,11,23.40
2014,08,03,11,12,23.40
2014,08,03,11,13,23.40
2014,08,03,11,14,23.50
2014,08,03,11,15,23.60
2014,08,03,11,16,23.60
2014,08,03,11,17,23.70
2014,08,03,11,18,23.70
2014,08,03,11,19,23.70
2014,08,03,11,20,23.60
2014,08,03,11,21,23.60
2014,08,03,11,22,23.60
2014,08,03,11,23,23.60
2014,08,03,11,24,23.60
2014,08,03,11,25,23.70
2014,08,03,11,26,23.80
2014,08,03,11,27,23.80
2014,08,03,11,28,23.90
2014,08,03,11,29,23.90
2014,08,03,11,30,24.00
2014,08,03,11,31,24.10
2014,08,03,11,32,24.20
2014,08,03,11,33,24.20
2014,08,03,11,34,24.20
2014,08,03,11,35,24.10
2014,08,03,11,36,24.10
2014,08,03,11,37,24.10
2014,08,03,11,38,24.10
2014,08,03,11,39,24.10
2014,08,03,11,40,24.20
2014,08,03,11,41,24.20
2014,08,03,11,42,24.30
2014,08,03,11,43,24.30
2014,08,03,11,44,24.40
2014,08,03,11,45,24.40
2014,08,03,11,46,24.40
2014,08,03,11,47,24.40
2014,08,03,11,48,24.40
2014,08,03,11,49,24.40
2014,08,03,11,50,24.40
2014,08,03,11,51,24.40
2014,08,03,11,52,24.50
2014,08,03,11,53,24.60
2014,08,03,11,54,24.70
2014,08,03,11,55,24.70
2014,08,03,11,56,24.70
2014,08,03,11,57,24.80
2014,08,03,11,58,24.80
2014,08,03,11,59,24.80
2014,08,03,12,00,24.90
2014,08,03,12,01,24.90
2014,08,03,12,02,24.90
2014,08,03,12,03,24.90
2014,08,03,12,04,24.90
2014,08,03,12,05,24.90
2014,08,03,12,06,24.90
2014,08,03,12,07,24.90
2014,08,03,12,08,24.90
2014,08,03,12,09,24.90
2014,08,03,12,10,25.00
2014,08,03,12,11,25.00
2014,08,03,12,12,25.00
2014,08,03,12,13,25.00
2014,08,03,12,14,25.00
2014,08,03,12,15,25.10
2014,08,03,12,16,25.10
2014,08,03,12,17,25.10
2014,08,03,12,18,25.10
2014,08,03,12,19,25.20
2014,08,03,12,20,25.30
2014,08,03,12,21,25.30
2014,08,03,12,22,25.30
2014,08,03,12,23,25.30
2014,08,03,12,24,25.30
2014,08,03,12,25,25.30
2014,08,03,12,26,25.30
2014,08,03,12,27,25.20
2014,08,03,12,28,25.20
2014,08,03,12,29,25.20
2014,08,03,12,30,25.20
2014,08,03,12,31,25.20
2014,08,03,12,32,25.30
2014,08,03,12,33,25.40
2014,08,03,12,34,25.40
2014,08,03,12,35,25.40
2014,08,03,12,36,25.40
2014,08,03,12,37,25.50
2014,08,03,12,38,25.50
2014,08,03,12,39,25.50
2014,08,03,12,40,25.50
2014,08,03,12,41,25.50
2014,08,03,12,42,25.40
2014,08,03,12,43,25.30
2014,08,03,12,44,25.20
2014,08,03,12,45,25.20
2014,08,03,12,46,25.20
2014,08,03,12,47,25.20
2014,08,03,12,48,25.20
2014,08,03,12,49,25.30
2014,08,03,12,50,25.40
2014,08,03,12,51,25.40
2014,08,03,12,52,25.50
2014,08,03,12,53,25.70
2014,08,03,12,54,25.80
2014,08,03,12,55,25.90
2014,08,03,12,56,25.90
2014,08,03,12,57,25.80
2014,08,03,12,58,25.70
2014,08,03,12,59,25.70
2014,08,03,13,00,25.70
2014,08,03,13,01,25.70
2014,08,03,13,02,25.70
2014,08,03,13,03,25.70
2014,08,03,13,04,25.70
2014,08,03,13,05,25.70
2014,08,03,13,06,25.70
2014,08,03,13,07,25.70
2014,08,03,13,08,25.70
2014,08,03,13,09,25.70
2014,08,03,13,10,25.80
2014,08,03,13,11,25.80
2014,08,03,13,12,26.00
2014,08,03,13,13,26.10
2014,08,03,13,14,26.20
2014,08,03,13,15,26.20
2014,08,03,13,16,26.20
2014,08,03,13,17,26.20
2014,08,03,13,18,26.20
2014,08,03,13,19,26.10
2014,08,03,13,20,26.10
2014,08,03,13,21,26.10
2014,08,03,13,22,26.10
2014,08,03,13,23,26.10
2014,08,03,13,24,26.10
2014,08,03,13,25,26.10
2014,08,03,13,26,26.20
2014,08,03,13,27,26.20
2014,08,03,13,28,26.20
2014,08,03,13,29,26.30
2014,08,03,13,30,26.30
2014,08,03,13,31,26.40
2014,08,03,13,32,26.40
2014,08,03,13,33,26.40
2014,08,03,13,34,26.40
2014,08,03,13,35,26.40
2014,08,03,13,36,26.50
2014,08,03,13,37,26.60
2014,08,03,13,38,26.60
2014,08,03,13,39,26.60
2014,08,03,13,40,26.70
2014,08,03,13,41,26.70
2014,08,03,13,42,26.70
2014,08,03,13,43,26.70
2014,08,03,13,44,26.80
2014,08,03,13,45,26.80
2014,08,03,13,46,26.70
2014,08,03,13,47,26.60
2014,08,03,13,48,26.60
2014,08,03,13,49,26.60
2014,08,03,13,50,26.60
2014,08,03,13,51,26.60
2014,08,03,13,52,26.60
2014,08,03,13,53,26.70
2014,08,03,13,54,26.60
2014,08,03,13,55,26.60
2014,08,03,13,56,26.60
2014,08,03,13,57,26.60
2014,08,03,13,58,26.60
2014,08,03,13,59,26.60
2014,08,03,14,00,26.50
2014,08,03,14,01,26.50
2014,08,03,14,02,26.50
2014,08,03,14,03,26.50
2014,08,03,14,04,26.60
2014,08,03,14,05,26.60
2014,08,03,14,06,26.60
2014,08,03,14,07,26.60
2014,08,03,14,08,26.60
2014,08,03,14,09,26.60
2014,08,03,14,10,26.70
2014,08,03,14,11,26.70
2014,08,03,14,12,26.70
2014,08,03,14,13,26.70
2014,08,03,14,14,26.80
2014,08,03,14,15,26.80
2014,08,03,14,16,26.90
2014,08,03,14,17,27.00
2014,08,03,14,18,27.10
2014,08,03,14,19,27.10
2014,08,03,14,20,27.10
2014,08,03,14,21,27.10
2014,08,03,14,22,27.10
2014,08,03,14,23,27.20
2014,08,03,14,24,27.20
2014,08,03,14,25,27.20
2014,08,03,14,26,27.30
2014,08,03,14,27,27.30
2014,08,03,14,28,27.30
2014,08,03,14,29,27.20
2014,08,03,14,30,27.20
2014,08,03,14,31,27.20
2014,08,03,14,32,27.20
2014,08,03,14,33,27.20
2014,08,03,14,34,27.20
2014,08,03,14,35,27.10
2014,08,03,14,36,27.10
2014,08,03,14,37,27.10
2014,08,03,14,38,27.00
2014,08,03,14,39,27.00
2014,08,03,14,40,27.00
2014,08,03,14,41,27.00
2014,08,03,14,42,27.00
2014,08,03,14,43,27.10
2014,08,03,14,44,27.10
2014,08,03,14,45,27.20
2014,08,03,14,46,27.30
2014,08,03,14,47,27.40
2014,08,03,14,48,27.50
2014,08,03,14,49,27.70
2014,08,03,14,50,27.70
2014,08,03,14,51,27.80
2014,08,03,14,52,27.80
2014,08,03,14,53,27.80
2014,08,03,14,54,27.70
2014,08,03,14,55,27.70
2014,08,03,14,56,27.70
2014,08,03,14,57,27.80
2014,08,03,14,58,27.80
2014,08,03,14,59,27.90
2014,08,03,15,00,27.90
2014,08,03,15,01,27.90
2014,08,03,15,02,27.90
2014,08,03,15,03,27.90
2014,08,03,15,04,27.90
2014,08,03,15,05,27.90
2014,08,03,15,06,27.80
2014,08,03,15,07,27.80
2014,08,03,15,08,27.90
2014,08,03,15,09,27.90
2014,08,03,15,10,28.00
2014,08,03,15,11,28.10
2014,08,03,15,12,28.20
2014,08,03,15,13,28.10
2014,08,03,15,14,28.10
2014,08,03,15,15,28.10
2014,08,03,15,16,28.10
2014,08,03,15,17,28.10
2014,08,03,15,18,28.10
2014,08,03,15,19,28.10
2014,08,03,15,20,28.20
2014,08,03,15,21,28.20
2014,08,03,15,22,28.30
2014,08,03,15,23,28.30
2014,08,03,15,24,28.40
2014,08,03,15,25,28.50
2014,08,03,15,26,28.50
2014,08,03,15,27,28.50
2014,08,03,15,28,28.50
2014,08,03,15,29,28.50
2014,08,03,15,30,28.50
2014,08,03,15,31,28.40
2014,08,03,15,32,28.30
2014,08,03,15,33,28.20
2014,08,03,15,34,28.10
2014,08,03,15,35,28.00
2014,08,03,15,36,28.00
2014,08,03,15,37,28.00
2014,08,03,15,38,28.10
2014,08,03,15,39,28.10
2014,08,03,15,40,28.10
2014,08,03,15,41,28.10
2014,08,03,15,42,28.20
2014,08,03,15,43,28.20
2014,08,03,15,44,28.30
2014,08,03,15,45,28.30
2014,08,03,15,46,28.30
2014,08,03,15,47,28.30
2014,08,03,15,48,28.30
2014,08,03,15,49,28.30
2014,08,03,15,50,28.30
2014,08,03,15,51,28.20
2014,08,03,15,52,28.30
2014,08,03,15,53,28.30
2014,08,03,15,54,28.30
2014,08,03,15,55,28.30
2014,08,03,15,56,28.20
2014,08,03,15,57,28.20
2014,08,03,15,58,28.20
2014,08,03,15,59,28.10
2014,08,03,16,00,28.10
2014,08,03,16,01,28.00
2014,08,03,16,02,28.00
2014,08,03,16,03,28.00
2014,08,03,16,04,28.00
2014,08,03,16,05,28.00
2014,08,03,16,06,28.10
2014,08,03,16,07,28.10
2014,08,03,16,08,28.20
2014,08,03,16,09,28.10
2014,08,03,16,10,28.10
2014,08,03,16,11,28.10
2014,08,03,16,12,28.10
2014,08,03,16,13,28.10
2014,08,03,16,14,28.00
2014,08,03,16,15,28.00
2014,08,03,16,16,27.90
2014,08,03,16,17,27.90
2014,08,03,16,18,28.00
2014,08,03,16,19,28.00
2014,08,03,16,20,28.00
2014,08,03,16,21,28.00
2014,08,03,16,22,28.00
2014,08,03,16,23,28.10
2014,08,03,16,24,28.10
2014,08,03,16,25,28.10
2014,08,03,16,26,28.10
2014,08,03,16,27,28.00
2014,08,03,16,28,28.00
2014,08,03,16,29,28.00
2014,08,03,16,30,28.00
2014,08,03,16,31,28.00
2014,08,03,16,32,28.00
2014,08,03,16,33,28.00
2014,08,03,16,34,28.10
2014,08,03,16,35,28.10
2014,08,03,16,36,28.10
2014,08,03,16,37,28.10
2014,08,03,16,38,28.10
2014,08,03,16,39,28.20
2014,08,03,16,40,28.20
2014,08,03,16,41,28.20
2014,08,03,16,42,28.30
2014,08,03,16,43,28.30
2014,08,03,16,44,28.30
2014,08,03,16,45,28.40
2014,08,03,16,46,28.40
2014,08,03,16,47,28.40
2014,08,03,16,48,28.30
2014,08,03,16,49,28.30
2014,08,03,16,50,28.30
2014,08,03,16,51,28.30
2014,08,03,16,52,28.30
2014,08,03,16,53,28.30
2014,08,03,16,54,28.30
2014,08,03,16,55,28.30
2014,08,03,16,56,28.30
2014,08,03,16,57,28.30
2014,08,03,16,58,28.40
2014,08,03,16,59,28.40
2014,08,03,17,00,28.40
2014,08,03,17,01,28.50
2014,08,03,17,02,28.50
2014,08,03,17,03,28.60
2014,08,03,17,04,28.60
2014,08,03,17,05,28.70
2014,08,03,17,06,28.70
2014,08,03,17,07,28.70
2014,08,03,17,08,28.80
2014,08,03,17,09,28.80
2014,08,03,17,10,28.80
2014,08,03,17,11,28.90
2014,08,03,17,12,28.90
2014,08,03,17,13,29.00
2014,08,03,17,14,29.00
2014,08,03,17,15,29.00
2014,08,03,17,16,29.10
2014,08,03,17,17,29.10
2014,08,03,17,18,29.10
2014,08,03,17,19,29.10